Search the data

BODC Cruise Metadata Report for Prince Madog (74PD) cruise ISIS42

Introduction

This report collates information from the BODC cruise inventory and oceanographic databases. It presents

Cruise Inventory Information

Long name Prince Madog (74PD) cruise ISIS42
Short name ISIS42
Objectives and Narrative Survey cruise contributing to research directed toward an understanding of how the physics of the Irish Sea and surrounding regions (Celtic Sea, St, George's Channel, North Channel and Clyde Sea) determined biogeochemical processes and sediment transport.
Ship Prince Madog
Departure Port Menai Bridge, United Kingdom
Departure Date 1985-07-29
Arrival Port Menai Bridge, United Kingdom
Arrival Date 1985-08-01
Principal Scientist(s) Juan Brown (University of Wales, Bangor School of Ocean Sciences)
Responsible Organisation University of Wales, Bangor School of Ocean Sciences
Associated Project(s) Interdisciplinary Study of the Irish Sea
IHB Sea Areas Visited Irish Sea and St. George's Channel
Marsden Squares Visited 181;133
Work Area Description
Work Area Bounding Polygon 53N,4W; 54N,4W; 54N,3W; 53N,3W; 53N,4W
Southern Limit 53N
Northern Limit 54N
Western Limit 4W
Eastern Limit 3W

Cruise Inventory Datasets

Physical oceanography  
CTD stations Quantity: number of stations = 50
Description: disc  
Optics (eg underwater light levels) Quantity: 29
Description: disc,irradiance meter  
Other physical oceanographic measurements Description: deadalus multi spectral scanner from NERC aircraft  
Surface measurements underway (T,S) Description:  
Transparency (eg transmissometer) Description:  
Water bottle stations Quantity: number of stations = 42
Description: surface only  
Biology and fisheries  
Phytoplankton pigs (eg chlorophyll, fluorescence) Quantity: 50
Description:  
Seston Quantity: 50
Description:  
Meteorology  
Incident radiation Description:  
Other meteorological measurements Description: sea and swell  

Cruise Inventory Mooring/Buoy Operations

No information on datasets is currently available

Summary of BODC Data Holdings for the Cruise

National Oceanographic Database

Summary

# Series Instrument Description Parameters
72 CTD/STD cast Electrical conductivity of the water column
Salinity of the water column
Temperature of the water column
Vertical spatial coordinates

Note: Parameter terms are taken from the BODC Parameter Discovery Vocabulary XML (SKOS)

Full List

BODC Reference Instrument Description Date/Time Location  
287287 CTD/STD cast 1985-07-29 21:29Z 53° 34' N, 3° 30' W Click for more
287299 CTD/STD cast 1985-07-29 22:25Z 53° 34' N, 3° 40' W Click for more
287306 CTD/STD cast 1985-07-29 23:17Z 53° 34' N, 3° 49' W Click for more
287318 CTD/STD cast 1985-07-30 00:10Z 53° 30' N, 3° 49' W Click for more
287331 CTD/STD cast 1985-07-30 01:10Z 53° 30' N, 3° 40' W Click for more
287343 CTD/STD cast 1985-08-01 15:58Z 53° 30' N, 3° 40' W Click for more
287355 CTD/STD cast 1985-07-30 02:12Z 53° 30' N, 3° 30' W Click for more
287367 CTD/STD cast 1985-08-01 14:58Z 53° 25' N, 3° 40' W Click for more
287379 CTD/STD cast 1985-07-29 12:00Z 53° 25' N, 4° 2' W Click for more
287380 CTD/STD cast 1985-07-29 13:17Z 53° 30' N, 4° 0' W Click for more
287392 CTD/STD cast 1985-07-29 14:25Z 53° 34' N, 4° 0' W Click for more
287411 CTD/STD cast 1985-07-30 14:30Z 53° 27' N, 4° 10' W Click for more
287423 CTD/STD cast 1985-07-30 15:50Z 53° 27' N, 4° 0' W Click for more
287435 CTD/STD cast 1985-07-30 17:10Z 53° 27' N, 3° 49' W Click for more
287447 CTD/STD cast 1985-07-30 18:47Z 53° 30' N, 4° 0' W Click for more
287459 CTD/STD cast 1985-07-29 15:35Z 53° 40' N, 4° 0' W Click for more
287460 CTD/STD cast 1985-07-29 16:45Z 53° 40' N, 3° 49' W Click for more
287472 CTD/STD cast 1985-07-31 18:35Z 53° 37' N, 4° 15' W Click for more
287484 CTD/STD cast 1985-07-31 19:28Z 53° 37' N, 4° 4' W Click for more
287496 CTD/STD cast 1985-07-31 20:13Z 53° 37' N, 3° 55' W Click for more
287503 CTD/STD cast 1985-07-31 20:56Z 53° 37' N, 3° 45' W Click for more
287515 CTD/STD cast 1985-07-31 14:12Z 53° 32' N, 3° 45' W Click for more
287527 CTD/STD cast 1985-08-01 07:50Z 53° 32' N, 3° 45' W Click for more
287539 CTD/STD cast 1985-07-31 15:14Z 53° 32' N, 3° 55' W Click for more
287540 CTD/STD cast 1985-08-01 06:45Z 53° 32' N, 3° 55' W Click for more
287552 CTD/STD cast 1985-07-31 16:20Z 53° 32' N, 4° 4' W Click for more
287564 CTD/STD cast 1985-08-01 06:00Z 53° 32' N, 4° 4' W Click for more
287576 CTD/STD cast 1985-07-31 17:30Z 53° 32' N, 4° 15' W Click for more
287588 CTD/STD cast 1985-08-01 04:55Z 53° 32' N, 4° 15' W Click for more
287607 CTD/STD cast 1985-07-31 09:01Z 53° 27' N, 4° 10' W Click for more
287619 CTD/STD cast 1985-07-31 10:05Z 53° 27' N, 4° 4' W Click for more
287620 CTD/STD cast 1985-07-29 17:55Z 53° 40' N, 3° 40' W Click for more
287632 CTD/STD cast 1985-07-31 12:00Z 53° 27' N, 3° 55' W Click for more
287644 CTD/STD cast 1985-08-01 11:20Z 53° 27' N, 3° 55' W Click for more
287656 CTD/STD cast 1985-08-01 09:42Z 53° 27' N, 3° 46' W Click for more
287668 CTD/STD cast 1985-07-31 13:00Z 53° 27' N, 3° 45' W Click for more
287681 CTD/STD cast 1985-08-01 08:55Z 53° 27' N, 3° 45' W Click for more
287693 CTD/STD cast 1985-08-01 00:50Z 53° 23' N, 3° 45' W Click for more
287700 CTD/STD cast 1985-08-01 14:08Z 53° 23' N, 3° 45' W Click for more
287712 CTD/STD cast 1985-08-01 01:36Z 53° 22' N, 3° 55' W Click for more
287724 CTD/STD cast 1985-08-01 12:37Z 53° 22' N, 3° 55' W Click for more
287736 CTD/STD cast 1985-08-01 02:23Z 53° 22' N, 4° 4' W Click for more
287748 CTD/STD cast 1985-08-01 03:01Z 53° 22' N, 4° 15' W Click for more
287761 CTD/STD cast 1985-07-31 21:41Z 53° 37' N, 3° 34' W Click for more
287773 CTD/STD cast 1985-07-31 22:28Z 53° 32' N, 3° 34' W Click for more
287785 CTD/STD cast 1985-07-31 23:19Z 53° 27' N, 3° 34' W Click for more
287797 CTD/STD cast 1985-07-31 23:54Z 53° 24' N, 3° 34' W Click for more
287804 CTD/STD cast 1985-07-29 18:50Z 53° 40' N, 3° 30' W Click for more
287816 CTD/STD cast 1985-07-29 19:50Z 53° 40' N, 3° 19' W Click for more
287828 CTD/STD cast 1985-07-29 20:29Z 53° 34' N, 3° 19' W Click for more
287841 CTD/STD cast 1985-07-31 01:00Z 53° 28' N, 4° 4' W Click for more
287853 CTD/STD cast 1985-07-31 01:30Z 53° 28' N, 4° 4' W Click for more
287865 CTD/STD cast 1985-07-31 02:00Z 53° 28' N, 4° 4' W Click for more
287877 CTD/STD cast 1985-07-31 02:30Z 53° 28' N, 4° 4' W Click for more
287889 CTD/STD cast 1985-07-31 03:00Z 53° 28' N, 4° 4' W Click for more
287890 CTD/STD cast 1985-07-31 03:30Z 53° 28' N, 4° 4' W Click for more
287908 CTD/STD cast 1985-07-31 04:03Z 53° 28' N, 4° 4' W Click for more
287921 CTD/STD cast 1985-07-31 04:30Z 53° 28' N, 4° 4' W Click for more
287933 CTD/STD cast 1985-07-31 05:00Z 53° 28' N, 4° 4' W Click for more
287945 CTD/STD cast 1985-07-31 05:30Z 53° 28' N, 4° 4' W Click for more
287957 CTD/STD cast 1985-07-30 20:30Z 53° 28' N, 4° 4' W Click for more
287969 CTD/STD cast 1985-07-31 06:00Z 53° 28' N, 4° 4' W Click for more
287970 CTD/STD cast 1985-07-31 06:30Z 53° 28' N, 4° 4' W Click for more
287982 CTD/STD cast 1985-07-31 07:00Z 53° 28' N, 4° 4' W Click for more
287994 CTD/STD cast 1985-07-30 21:00Z 53° 28' N, 4° 4' W Click for more
288008 CTD/STD cast 1985-07-30 21:30Z 53° 28' N, 4° 4' W Click for more
288021 CTD/STD cast 1985-07-30 22:00Z 53° 28' N, 4° 4' W Click for more
288033 CTD/STD cast 1985-07-30 22:30Z 53° 28' N, 4° 4' W Click for more
288045 CTD/STD cast 1985-07-30 23:00Z 53° 28' N, 4° 4' W Click for more
288057 CTD/STD cast 1985-07-30 23:30Z 53° 28' N, 4° 4' W Click for more
288069 CTD/STD cast 1985-07-31 00:00Z 53° 28' N, 4° 4' W Click for more
288070 CTD/STD cast 1985-07-31 00:30Z 53° 28' N, 4° 4' W Click for more

Project Database

No data currently held for this cruise in the BODC Project Database

References

Track Charts

No track charts currently available

Reports

No reports currently available